Location: B�di�
(14.6834°N, 3.1047°W)
Time: 13:57:37
(UTC+00:00)

YAOGAN 1 - Pass Details

Date: 24 January 2020
Orbit: 619 x 621 km, 98.0° (Epoch: 26 February)

Event Time Altitude Azimuth Distance (km) Brightness Sun altitude
Rises 19:05:07 0° 169° (S) 2,884 6.1 -14.2°
Reaches altitude 10° 19:07:18 10° 170° (S) 1,980 5.2 -14.7°
Maximum altitude 19:11:36 84° 258° (WSW) 626 2.6 -15.7°
Drops below altitude 10° 19:15:55 10° 347° (NNW) 1,982 5.1 -16.7°
Sets 19:18:06 0° 348° (NNW) 2,888 6.0 -17.2°
